NO-84
1 40654U 15025D 18012.51969470 +.00006166 +00000-0 +10790-3 0 01918
2 40654 054.9939 018.1009 0169926 074.6945 287.2735 15.37845626031877
NO-83
1 40655U 15025E 18012.36806282 +.00013721 +00000-0 +16923-3 0 02250
2 40655 054.9795 338.0205 0128684 097.8495 263.7155 15.51202999032055
DEORBITSAIL
1 40719U 15032E 18012.70920443 +.00000393 +00000-0 +63987-4 0 9995
2 40719 097.9612 268.6073 0016095 184.6455 175.4608 14.76302416135232
NUDT-PHONESAT
1 40900U 15049B 18012.91193088 +.00002156 +00000-0 +10122-3 0 9996
2 40900 097.4423 023.0240 0012840 206.7740 153.2834 15.20654270128319
XW-2A
1 40903U 15049E 18013.54969784 .00001809 00000-0 47561-4 0 9995
2 40903 97.4024 46.7647 0013201 223.2630 136.7580 15.39885252130005
XW-2C
1 40906U 15049H 18012.91457250 +.00000705 +00000-0 +41235-4 0 9994
2 40906 097.4576 019.2996 0014424 202.5405 157.5196 15.14971300127980
XW-2D
1 40907U 15049J 18013.54209359 .00000688 00000-0 40175-4 0 9992
2 40907 97.4548 19.6335 0013876 197.8560 162.2187 15.15106189128080
LILACSAT-2
1 40908U 15049K 18012.90422762 +.00000397 +00000-0 +25830-4 0 9995
2 40908 097.4656 018.5604 0015449 200.9762 159.0838 15.13380223127881
XW-2F
1 40910U 15049M 18013.54080113 .00001024 00000-0 56340-4 0 9997
2 40910 97.4559 20.6699 0014728 194.6332 165.4477 15.16191595128016
XW-2B
1 40911U 15049N 18012.95977571 +.00000721 +00000-0 +42012-4 0 9999
2 40911 097.4587 019.5379 0013736 200.4448 159.6236 15.15056055127895
DCBB
1 40912U 15049P 18013.43836122 .00000997 00000-0 51716-4 0 9996
2 40912 97.4514 22.9969 0014933 184.2698 282.6276 15.18367263128188
TW-1C
1 40926U 15051B 18013.49882623 .00006543 00000-0 13288-3 0 9991
2 40926 97.2048 56.6570 0012307 118.7889 350.9951 15.46596755129385
TW-1A
1 40928U 15051D 18013.39037909 .00002848 00000-0 78746-4 0 9996
2 40928 97.2045 50.3676 0012633 152.4499 333.4837 15.37774553128984
IO-86
1 40931U 15052B 18013.44793836 .00000562 00000-0 -10852-4 0 9991
2 40931 5.9957 173.5592 0013779 342.1929 17.7904 14.76560625124099
LQSat
1 40958U 15057A 18013.42404072 .00000014 00000-0 98988-5 0 9992
2 40958 97.9583 89.8426 0019508 110.9954 249.3341 14.73011386122069
AO-85
1 40967U 15058D 18012.32921683 +.00000323 +00000-0 +54109-4 0 02052
2 40967 064.7775 304.3544 0189966 003.4553 356.7831 14.75618141030651
ATHENOXAT-1
1 41168U 15077C 18013.43947795 .00001813 00000-0 63358-4 0 9993
2 41168 14.9863 72.5708 0012155 52.3015 317.9519 15.12374112114910
ChubuSat-2
1 41338U 16012B 18011.99469837 .00000304 00000-0 17091-4 0 9994
2 41338 31.0020 225.9519 0013980 326.0747 33.8993 14.99902897104367
ChubuSat-3
1 41339U 16012C 18011.96170669 .00000279 00000-0 15023-4 0 9998
2 41339 31.0085 224.9821 0013755 332.7300 27.2635 15.00095633104345
Horyu-4
1 41340U 16012D 18011.90382811 +.00000437 +00000-0 +26824-4 0 9995
2 41340 031.0039 221.3280 0014188 342.5838 017.4310 15.00857020104394
OUFTI-1
1 41458U 16025C 18013.33040520 .00001583 00000-0 87756-4 0 9990
2 41458 98.1596 67.7812 0169643 307.1283 51.4541 15.04151124 94159
e-st@r-II
1 41459U 16025D 18013.37821034 .00000404 00000-0 26148-4 0 9991
2 41459 98.1570 67.7277 0171004 307.4408 51.1352 15.03912171 94156
AAUSAT4
1 41460U 16025E 18013.49411616 .00002072 00000-0 11268-3 0 9996
2 41460 98.1521 68.1340 0162994 303.9395 54.6443 15.05154434 94212
LO-87
1 41557U 16033B 18013.43285528 .00001204 00000-0 46895-4 0 9998
2 41557 97.4484 97.8863 0013538 351.6314 8.4697 15.27907976 90527
NuSat2
1 41558U 16033C 18013.22712794 .00001309 00000-0 51014-4 0 9991
2 41558 97.4511 97.7573 0012981 351.4181 8.6834 15.27739697 90480
Lapan A3
1 41603U 16040E 18013.12005825 .00000004 00000-0 34185-5 0 9991
2 41603 97.4348 77.2713 0015068 63.8059 353.6393 15.19495872 86534
Swayam
1 41607U 16040J 18013.42164328 .00001400 00000-0 64738-4 0 9999
2 41607 97.4349 78.4381 0015415 64.5166 295.7663 15.21738612 86560
Pratham
1 41783U 16059A 18013.14809919 .00000054 00000-0 19936-4 0 9999
2 41783 98.1406 77.0400 0032852 220.6098 139.2653 14.62893813 69298
AlSat 1N
1 41789U 16059G 18013.44051816 .00000053 00000-0 19212-4 0 9999
2 41789 98.1407 78.2403 0027502 212.1328 147.8202 14.64118532 69373
ScatSat
1 41790U 16059H 18012.72786976 .00000013 00000-0 14540-4 0 9998
2 41790 98.2833 63.1527 0017734 205.1259 154.9074 14.50856889 68644
TY-1
1 41844U 16066D 18013.48956997 .00001253 00000-0 56532-4 0 9996
2 41844 97.4062 22.5633 0014495 216.2006 296.3168 15.22789250 65335
CAS-2T
1 41845U 16066E 18013.48937626 .00000104 00000-0 26799-4 0 9991
2 41845 98.7652 39.0206 0366086 344.1732 14.8259 14.37851172 61717
Pegasus-1
1 41846U 16066F 18012.87656449 +.00000381 +00000-0 +69011-4 0 9996
2 41846 098.7687 038.0343 0368374 347.9447 011.3097 14.37237802061599
STARS-C
1 41895U 98067KR 18012.89077781 +.00131990 +00000-0 +48272-3 0 9995
2 41895 051.6330 041.6918 0005879 029.9009 330.2330 15.87451464060953
TO-89
1 41932U 98067KU 18012.40467346 +.00016670 +00000-0 +15311-3 0 9999
2 41932 051.6391 058.1632 0004624 338.6052 021.4750 15.67846553056262
AOBA-V3LOX3
1 41935U 98067KX 18012.47925830 +.00021621 +00000-0 +18499-3 0 9998
2 41935 051.6382 056.3910 0004254 343.7550 016.3310 15.69384576056396
OSNSAT
1 41939U 98067KZ 18011.28402027 +.11925055 +12489-4 +54124-3 0 9997
2 41939 051.6147 038.9582 0001091 231.1728 128.9202 16.43639489055773
EO-88
1 42017U 17008BX 18012.89766613 +.00001529 +00000-0 +66214-4 0 9998
2 42017 097.4698 078.7578 0006087 192.0765 168.0327 15.23937787050411
HAVELSAT
1 42700U 98067LH 18013.33393964 .00013101 00000-0 14190-3 0 9990
2 42700 51.6386 62.1004 0005455 27.4687 332.6596 15.63917072 37735
SOMP2
1 42701U 98067LJ 18013.12433071 .00015660 00000-0 17200-3 0 9999
2 42701 51.6382 63.7003 0005435 26.7407 333.3867 15.63382319 37681
Columbia
1 42702U 98067LK 18013.51365302 .00099916 00000-0 47670-3 0 9994
2 42702 51.6314 51.1883 0006815 24.4901 335.6424 15.82005169 37816
PHOENIX
1 42706U 98067LP 18013.49514521 .00011704 00000-0 13040-3 0 9997
2 42706 51.6385 61.6799 0001560 1.9914 358.1087 15.63324732 37663
X-CubeSat
1 42707U 98067LQ 18013.34281321 .00014498 00000-0 15608-3 0 9996
2 42707 51.6366 62.1398 0001794 359.6850 0.4143 15.63977889 37639
qbee
1 42708U 98067LR 18013.48886192 .00013917 00000-0 15194-3 0 9994
2 42708 51.6382 61.6234 0001809 0.8897 359.2100 15.63658279 37619
ZA-AeroSat
1 42713U 98067LU 18013.34413701 .00011858 00000-0 13771-3 0 9998
2 42713 51.6378 63.6668 0002324 328.3241 31.7613 15.62230962 37285
LINK
1 42714U 98067LV 18012.54631114 .00024113 00000-0 23260-3 0 9992
2 42714 51.6356 65.0579 0002757 332.3946 27.6903 15.66352275 37301
UPSat
1 42716U 98067LX 18012.49932080 .00020445 00000-0 20565-3 0 9993
2 42716 51.6378 65.5208 0004049 23.4006 336.7173 15.65410291 37318
SpaceCube
1 42717U 98067LY 18013.50846824 .00013763 00000-0 15090-3 0 9999
2 42717 51.6377 61.7597 0004059 28.9305 331.1914 15.63557396 36698
Hoopoe
1 42718U 98067LZ 18013.51317322 .00015569 00000-0 16359-3 0 9992
2 42718 51.6381 61.0417 0003988 26.3189 333.8008 15.64528668 36706
Challenger
1 42721U 98067MA 18013.48282721 .00026971 00000-0 24245-3 0 9998
2 42721 51.6364 59.3109 0006495 10.2709 349.8419 15.68015367 36428
NJUST-1
1 42722U 98067MB 18013.45820564 .00010626 00000-0 12661-3 0 9998
2 42722 51.6386 63.6796 0006653 12.8131 347.3031 15.61684011 36363
